EW9280 Weather Reports


time (UTC)temp
F
wind
direction
speed
knots
gust
knots
rain 1hr
in
rain 24hr
in
rain mn
in
humidity
%
barometer
mb
20260504174525 70 135 0.0 5.2 0.00 0.00 0.00 43 1011.6
20260504173022 69 145 0.9 2.6 0.00 0.00 0.00 55 1012.0
20260504171520 69 158 0.9 2.6 0.00 0.00 0.00 50 1012.2
20260504081557 54 125 4.3 7.8 0.00 0.00 0.00 74 1014.9
20260504044524 54 123 0.9 3.5 0.00 0.00 0.00 73 1015.3
20260504043024 53 123 0.9 3.5 0.00 0.00 0.00 74 1015.1
20260504041519 53 130 0.9 4.3 0.00 0.00 0.00 75 1015.3
20260504040017 52 124 1.7 3.5 0.00 0.00 0.00 74 1015.1
20260504034516 52 130 0.9 3.5 0.00 0.00 0.00 78 1015.1
20260504033016 52 130 1.7 2.6 0.00 0.00 0.00 78 1015.0
20260504031515 52 130 1.7 3.5 0.00 0.00 0.00 76 1014.9
20260504030016 52 130 1.7 3.5 0.00 0.00 0.00 74 1014.9
20260504024513 52 134 0.9 3.5 0.00 0.00 0.00 73 1014.9
20260504023013 50 130 0.9 3.5 0.00 0.00 0.00 77 1014.9
20260504021512 49 128 0.0 0.0 0.00 0.00 0.00 78 1014.9
20260504020010 48 128 0.0 0.0 0.00 0.00 0.00 73 1014.8
20260504014510 49 128 0.0 0.0 0.00 0.00 0.00 75 1014.7
20260504013011 49 128 0.0 0.0 0.00 0.00 0.00 72 1014.7
20260504011508 50 128 0.0 0.0 0.00 0.00 0.00 72 1014.6
20260504010006 51 128 0.0 0.0 0.00 0.00 0.00 69 1014.5
20260504004517 52 128 0.0 0.0 0.00 0.00 0.00 67 1014.3
20260504003005 53 128 0.0 0.0 0.00 0.00 0.00 66 1014.2
20260504001514 54 128 0.0 0.0 0.00 0.00 0.00 62 1013.9
20260504000003 55 128 0.0 0.0 0.00 0.00 0.00 53 1013.8
20260503234503 56 128 0.0 0.0 0.00 0.00 0.00 50 1013.6
20260503233004 58 128 0.0 0.0 0.00 0.00 0.00 48 1013.6
20260503231502 59 128 0.0 0.0 0.00 0.00 0.00 47 1013.5
20260503230002 59 128 0.0 0.9 0.00 0.00 0.00 47 1013.4
20260503224501 60 128 0.0 1.7 0.00 0.00 0.00 44 1013.5
20260503223006 61 329 0.0 1.7 0.00 0.00 0.00 42 1013.4
20260503221600 62 337 0.0 3.5 0.00 0.00 0.00 40 1013.6
20260503220100 63 121 0.9 1.7 0.00 0.00 0.00 37 1013.6
20260503214600 64 173 0.0 1.7 0.00 0.00 0.00 39 1013.5
20260503213057 63 247 0.9 2.6 0.00 0.00 0.00 37 1013.6
20260503211556 63 342 0.9 3.5 0.00 0.00 0.00 38 1013.5
20260503210055 63 134 0.9 3.5 0.00 0.00 0.00 41 1013.5
20260503204554 62 175 0.0 4.3 0.00 0.00 0.00 39 1013.4
20260503203051 62 310 0.0 4.3 0.00 0.00 0.00 40 1013.5
20260503201551 61 69 0.9 5.2 0.00 0.00 0.00 41 1013.5
20260503200047 61 70 1.7 7.0 0.00 0.00 0.00 39 1013.7
20260503194559 61 302 0.9 2.6 0.00 0.00 0.00 39 1014.1
20260503193044 60 134 1.7 3.5 0.00 0.00 0.00 40 1014.3
20260503191542 60 32 1.7 7.0 0.00 0.00 0.00 40 1014.5
20260503190044 59 11 0.9 4.3 0.00 0.00 0.00 39 1014.6
20260503184542 59 26 1.7 4.3 0.00 0.00 0.00 39 1014.7
20260503183041 59 329 0.9 5.2 0.00 0.00 0.00 38 1014.9
20260503181553 58 355 0.9 3.5 0.00 0.00 0.00 39 1014.9
20260503180041 57 28 0.9 5.2 0.00 0.00 0.00 40 1015.1